Location: Great Snoring
(52.8667°N, 0.8833°E)
Time: 19:04:02
(UTC+00:00)

Cosmos 44 - Pass Details

Date: 19 May 2025
Orbit: 588 x 763 km, 65.1° (Epoch: 23 June)

Event Time Altitude Azimuth Distance (km) Brightness Sun altitude
Rises 21:14:39 0° 314° (NW) 2,894 8.6 -9.5°
Reaches altitude 10° 21:16:55 10° 310° (NW) 2,007 7.2 -9.7°
Maximum altitude 21:21:18 51° 235° (SW) 817 3.7 -10.1°
Enters shadow 21:25:21 13° 161° (SSE) 1,893 4.9 -10.4°
